Juneau, AK

9:35 PM AKST on November 21, 2017 (GMT -0900)
Juneau International

Weather History for PAJN - August, 2012

Change the Weather History Date:

Monday, August 6, 2012

  Actual Average Record
Temperature  
Mean Temperature 55 °F 57 °F  
Max Temperature 59 °F 64 °F 78 °F (2017)
Min Temperature 51 °F 51 °F 39 °F (1991)
Degree Days  
Heating Degree Days 10 8  
Month to date heating degree days 61 46  
Since 1 June heating degree days 761 612  
Since 1 July heating degree days 367 297  
Cooling Degree Days 0 0  
Month to date cooling degree days 0 0  
Year to date cooling degree days 1 2  
Since 1 June cooling degree days 1 2  
Growing Degree Days 6 (Base 50)    
Moisture  
Dew Point 53 °F    
Average Humidity 97    
Maximum Humidity 100    
Minimum Humidity 93    
Precipitation  
Precipitation 0.69 in 0.15 in 1.04 in (1955)
Month to date precipitation 1.98 0.93  
Year to date precipitation 33.80 28.37  
Sea Level Pressure  
Sea Level Pressure 30.04 in    
Wind  
Wind Speed 14 mph (East)    
Max Wind Speed 21 mph    
Max Gust Speed 24 mph    
Visibility 9 miles    
Events Rain    
T = Trace of Precipitation, MM = Missing Value Source: NWS Daily Summary

Daily Weather History Graph

Daily Weather History Graph

Search for Another Location

Airport or City:

Trip Planner

Search our weather history database for the weather conditions in past years. The results will help you decide how hot, cold, wet, or windy it might be!

Date:

Astronomy

Aug. 06, 2012 Rise Set
Actual Time 5:01 AM AKDT 9:04 PM AKDT
Civil Twilight 4:10 AM AKDT 9:55 PM AKDT
Nautical Twilight 2:50 AM AKDT 11:13 PM AKDT
Astronomical Twilight 1:36 AM AKDT 12:31 AM AKDT
Moon 9:45 PM AKDT (8/6) 11:25 AM AKDT (8/6)
Length of Visible Light 17h 45m
Length of Day
16h 03m
Waning Gibbous, 77% of the Moon is Illuminated
Aug 6
Waning Gibbous
Aug 9
Last Quarter
Aug 17
New
Aug 24
First Quarter
Aug 31
Full

Hourly Weather History & Observations

Time (AKDT) Temp. Dew Point Humidity Pressure Visibility Wind Dir Wind Speed Gust Speed Precip Events Conditions
12:53 AM 53.1 °F 53.1 °F 100% 29.99 in 9.0 mi East 16.1 mph - 0.04 in Rain Light Rain
1:53 AM 53.1 °F 52.0 °F 96% 29.99 in 10.0 mi East 15.0 mph - 0.04 in Rain Light Rain
2:53 AM 52.0 °F 51.1 °F 97% 30.00 in 10.0 mi East 19.6 mph - 0.07 in Rain Light Rain
3:53 AM 52.0 °F 51.1 °F 97% 30.00 in 7.0 mi East 15.0 mph - 0.10 in Rain Rain
4:53 AM 52.0 °F 51.1 °F 97% 30.00 in 5.0 mi ESE 19.6 mph - 0.12 in Rain Rain
5:53 AM 52.0 °F 51.1 °F 97% 30.00 in 7.0 mi ESE 17.3 mph - 0.09 in Rain Light Rain
6:53 AM 52.0 °F 51.1 °F 97% 30.01 in 5.0 mi ESE 11.5 mph - 0.03 in Rain Light Rain
7:53 AM 52.0 °F 52.0 °F 100% 30.03 in 5.0 mi East 13.8 mph - 0.05 in Rain Light Rain
8:53 AM 54.0 °F 53.1 °F 97% 30.03 in 9.0 mi East 10.4 mph - 0.04 in Rain Light Rain
9:53 AM 54.0 °F 53.1 °F 97% 30.04 in 9.0 mi East 12.7 mph - 0.03 in Rain Light Rain
10:53 AM 54.0 °F 54.0 °F 100% 30.05 in 7.0 mi East 12.7 mph - 0.09 in Rain Rain
11:53 AM 55.0 °F 54.0 °F 96% 30.05 in 10.0 mi East 11.5 mph - 0.02 in Rain Light Rain
12:53 PM 55.0 °F 54.0 °F 96% 30.06 in 10.0 mi East 11.5 mph - 0.01 in Rain Light Rain
1:53 PM 57.9 °F 55.0 °F 90% 30.06 in 10.0 mi East 10.4 mph - 0.00 in   Overcast
2:53 PM 57.9 °F 55.0 °F 90% 30.06 in 10.0 mi East 13.8 mph - N/A   Overcast
3:53 PM 59.0 °F 55.0 °F 87% 30.06 in 10.0 mi East 10.4 mph - N/A   Overcast
4:53 PM 60.1 °F 55.0 °F 83% 30.05 in 10.0 mi East 12.7 mph - N/A   Overcast
5:22 PM 59.0 °F 53.6 °F 82% 30.05 in 10.0 mi ESE 10.4 mph - N/A   Overcast
5:53 PM 57.9 °F 54.0 °F 87% 30.05 in 10.0 mi WSW 5.8 mph - N/A   Overcast
6:50 PM 57.2 °F 53.6 °F 88% 30.05 in 10.0 mi Calm Calm - N/A   Overcast
6:53 PM 57.0 °F 54.0 °F 89% 30.05 in 10.0 mi Calm Calm - N/A   Overcast
7:53 PM 57.0 °F 54.0 °F 89% 30.05 in 10.0 mi Calm Calm - N/A   Overcast
8:53 PM 57.0 °F 55.0 °F 93% 30.05 in 10.0 mi Calm Calm - N/A   Overcast
9:53 PM 55.9 °F 54.0 °F 93% 30.05 in 10.0 mi Calm Calm - N/A   Overcast
10:37 PM 53.6 °F 51.8 °F 94% 30.05 in 10.0 mi East 4.6 mph - N/A   Overcast
10:53 PM 54.0 °F 53.1 °F 97% 30.05 in 10.0 mi SE 3.5 mph - N/A   Overcast
11:53 PM 53.1 °F 52.0 °F 96% 30.04 in 10.0 mi Calm Calm - N/A   Overcast